Location: Ward Pound Ridge Reservation
(41.2500°N, 73.6000°W)
Time: 00:03:58
(UTC-05:00)

Tiangong 2 - Pass Details

Date: 14 October 2017
Orbit: 386 x 390 km, 42.8° (Epoch: 12 December)

Event Time Altitude Azimuth Distance (km) Brightness Sun altitude
Exits shadow 06:33:55 - 283° (WNW) 1,523 3.4 -6.7°
Maximum altitude 06:37:22 73° 8° (N) 412 1.2 -6.0°
Drops below altitude 10° 06:40:35 10° 94° (E) 1,423 5.9 -5.4°
Sets 06:42:40 0° 97° (E) 2,278 8.1 -5.0°
